[[{"header":{"parameterUnit":"m.s-1","parameterCategory":1,"la1":30.2991,"la2":30.254,"lo1":-89.0895,"lo2":-89.0444,"dy":0.0017,"dx":0.0017,"nx":28,"ny":28,"refTime":"2025-03-27T21:00:00:Z","depth":0,"parameterNumber":2,"parameterNumberName":"U-component_of_WINDS"},"data":[0,0,0,0,0,0,0,0,0,0,0,0,0,0,0,0,0,0,0,0,0,0,0,0,0,0,0,0,0,0,0,0,0,0,0,0,0,0,0,0,0,0,0,0,0,0,0,0,0,0,0,0,0,0,0,0,0,0,-5.4706,-5.4707,0,-5.476,-5.476,-5.4761,-5.4744,-5.4743,-5.4742,-5.4741,-5.4795,-5.4798,-5.48,0,0,0,0,0,0,0,0,0,0,0,0,0,-5.4594,-5.4596,-5.4706,-5.4707,-5.4708,-5.476,-5.476,-5.4761,-5.4745,-5.4743,-5.4742,-5.4741,-5.4795,-5.4797,-5.48,0,0,0,0,0,0,0,0,0,0,0,0,0,-5.4644,-5.4596,-5.4706,-5.4706,-5.4706,-5.4759,-5.476,-5.4761,-5.4745,-5.4743,-5.4742,-5.474,-5.4794,-5.4797,-5.4801,-5.4858,0,0,-5.4812,-5.4814,0,0,0,0,0,0,0,0,-5.4641,-5.4648,-5.4705,-5.4706,-5.4706,-5.4744,-5.474,-5.4794,-5.4745,-5.473,-5.4741,-5.4739,-5.478,-5.4784,-5.4798,-5.486,-5.4862,-5.4813,-5.4815,-5.4816,-5.4818,0,0,0,0,0,0,0,-5.4638,-5.4646,-5.4727,-5.4706,-5.4707,-5.4704,-5.4709,-5.475,-5.4764,-5.4731,-5.473,-5.4737,-5.478,-5.4794,-5.4799,-5.4863,-5.4812,-5.4816,-5.4818,-5.482,-5.4979,-5.4981,0,0,0,0,0,0,-5.4634,-5.4643,-5.4726,-5.4729,-5.4669,-5.4707,-5.4713,-5.4733,-5.4763,-5.4766,-5.4738,-5.4736,-5.4789,-5.4795,-5.4801,-5.487,-5.4816,-5.482,-5.4822,-5.4977,-5.498,-5.4982,0,0,0,0,0,0,-5.4631,-5.4641,-5.4723,-5.4686,-5.4696,-5.4711,-5.4734,-5.4735,-5.475,-5.4768,-5.4771,-5.4751,-5.4788,-5.4796,-5.4845,-5.4872,-5.4822,-5.4825,-5.4975,-5.4978,-5.4981,-5.5009,0,0,0,0,0,0,-5.4628,-5.464,-5.4661,-5.4686,-5.4698,-5.4765,-5.4735,-5.4738,-5.4757,-5.4754,-5.4781,-5.4783,-5.4787,-5.4839,-5.4848,-5.4876,-5.4828,-5.4972,-5.4976,-5.498,-5.5006,-5.5013,-5.5019,0,0,0,0,0,-5.4624,-5.4666,-5.4662,-5.4672,-5.4724,-5.4766,-5.4773,-5.4776,-5.4759,-5.478,-5.4793,-5.4783,-5.4869,-5.4844,-5.4854,-5.4884,-5.497,-5.4975,-5.4979,-5.5003,-5.5011,-5.5019,0,0,0,0,0,0,-5.464,-5.4669,-5.4664,-5.4715,-5.4739,-5.4763,-5.4789,-5.4785,-5.4813,-5.4809,-5.4813,-5.482,-5.487,-5.4883,-5.4855,-5.4943,-5.4917,-5.4924,-5.4931,-5.494,-5.4946,-5.494,-5.4831,0,0,0,0,0,-5.4651,-5.4682,-5.4706,-5.4748,-5.4761,-5.4774,-5.4792,-5.4794,-5.4818,-5.4827,-5.4843,-5.4868,-5.4901,-5.4921,-5.4953,-5.501,-5.5016,-5.5036,-5.5042,-5.5048,-5.5052,-5.5086,-5.5095,-5.4996,-5.4996,-5.4996,0,0,-5.467,-5.469,-5.4709,-5.4752,-5.477,-5.4804,-5.4782,-5.4817,-5.4843,-5.4833,-5.4879,-5.4893,-5.4921,-5.4975,-5.4999,-5.4987,-5.5082,-5.5053,-5.5057,-5.5059,-5.5091,-5.51,-5.5109,-5.5,-5.4999,-5.4998,0,0,-5.4723,-5.4741,-5.478,-5.48,-5.4829,-5.4838,-5.4848,-5.4875,-5.4884,-5.4932,-5.4926,-5.4958,-5.5014,-5.5034,-5.5052,-5.5121,-5.5113,-5.5132,-5.5164,-5.5197,-5.5204,-5.5211,-5.5236,-5.5244,-5.5137,-5.5137,-5.5137,0,-5.4743,-5.4793,-5.48,-5.4838,-5.4858,-5.4853,-5.4894,-5.4913,-5.495,-5.4965,-5.4952,-5.5025,-5.5043,-5.5102,-5.512,-5.5135,-5.5147,-5.5126,-5.5203,-5.521,-5.5216,-5.524,-5.5249,-5.5139,-5.5139,-5.5139,-5.5139,0,-5.4818,-5.4853,-5.4881,-5.4919,-5.4943,-5.4982,-5.4996,-5.502,-5.5022,-5.5034,-5.5085,-5.5108,-5.5145,-5.516,-5.5161,-5.5222,-5.5213,-5.5202,-5.5175,-5.5227,-5.5249,-5.5258,-5.5142,-5.5141,-5.5141,-5.514,0,0,-5.4875,-5.4921,-5.4931,-5.495,-5.4985,-5.5013,-5.5054,-5.5092,-5.5112,-5.5141,-5.5175,-5.5227,-5.5218,-5.5238,-5.5243,-5.5272,-5.5326,-5.5257,-5.5258,-5.5268,-5.5395,-5.5402,-5.5412,-5.5323,-5.5325,-5.5327,-5.5393,0,-5.493,-5.5,-5.5011,-5.5073,-5.5108,-5.5108,-5.5144,-5.517,-5.5184,-5.5217,-5.5233,-5.5269,-5.5254,-5.5267,-5.5296,-5.5313,-5.5351,-5.5309,-5.5355,-5.5357,-5.5345,-5.5423,-5.5429,-5.549,-5.5401,-5.5403,-5.5404,0,-5.5001,-5.5033,-5.51,-5.5134,-5.5149,-5.5181,-5.5218,-5.5249,-5.5281,-5.529,-5.5316,-5.5319,-5.5363,-5.5339,-5.5401,-5.5372,-5.5394,-5.5406,-5.5408,-5.5409,-5.538,-5.5425,-5.5509,-5.5517,-5.5418,-5.5416,-5.5416,0,-5.5035,-5.5096,-5.5144,-5.5161,-5.5202,-5.5225,-5.5244,-5.5274,-5.5297,-5.5332,-5.5347,-5.5386,-5.5406,-5.5437,-5.5451,-5.5432,-5.5513,-5.5489,-5.5521,-5.5521,-5.5534,-5.5532,-5.562,-5.5553,-5.5553,-5.5552,-5.5552,0,-5.5093,-5.5133,-5.5161,-5.5189,-5.5236,-5.5251,-5.5297,-5.5315,-5.5344,-5.5378,-5.5382,-5.5414,-5.5432,-5.5467,-5.5479,-5.553,-5.5539,-5.5548,-5.555,-5.5546,-5.5544,-5.5556,-5.5551,-5.5555,-5.5554,-5.5554,-5.5553,0,-5.5136,-5.5156,-5.5209,-5.5246,-5.5257,-5.529,-5.5322,-5.5352,-5.5369,-5.5412,-5.5424,-5.545,-5.5493,-5.5511,-5.5563,-5.5572,-5.5629,-5.5629,-5.5618,-5.5618,-5.5648,-5.5644,-5.5744,-5.5758,-5.5683,-5.5684,-5.5685,0,-5.517,-5.5202,-5.5244,-5.5268,-5.5287,-5.5325,-5.535,-5.5368,-5.5394,-5.5437,-5.5462,-5.5505,-5.554,-5.5609,-5.5633,-5.5674,-5.5674,-5.5707,-5.568,-5.5676,-5.5673,-5.567,-5.5673,-5.571,-5.5711,-5.5711,-5.5712,0,-5.5228,-5.5238,-5.5273,-5.5315,-5.5345,-5.5378,-5.541,-5.543,-5.5453,-5.5483,-5.5527,-5.5555,-5.5611,-5.5654,-5.5698,-5.5718,-5.5719,-5.5721,-5.5731,-5.5724,-5.5716,-5.572,-5.5628,-5.5717,-5.5717,-5.5716,-5.5716,-5.5716,-5.5266,-5.5296,-5.5331,-5.5372,-5.5399,-5.5431,-5.5461,-5.5484,-5.5522,-5.5568,-5.5578,-5.5625,-5.5662,-5.5721,-5.5744,-5.5783,-5.5775,-5.5788,-5.5791,-5.5793,-5.5795,-5.5713,-5.5791,-5.5791,-5.5791,-5.5791,-5.5791,0,-5.5323,-5.5348,-5.5386,-5.5432,-5.5466,-5.5467,-5.5505,-5.5532,-5.5574,-5.5608,-5.5644,-5.5698,-5.5742,-5.5772,-5.5817,-5.5842,-5.5844,-5.5853,-5.585,-5.5855,-5.58,-5.5786,-5.5851,-5.5851,-5.5851,-5.5851,-5.5851,-5.5851,-5.5356,-5.5406,-5.5421,-5.5486,-5.5511,-5.5558,-5.558,-5.561,-5.5637,-5.5697,-5.5734,-5.5754,-5.5788,-5.5836,-5.5877,-5.5885,-5.5901,-5.591,-5.5918,-5.5865,-5.5858,-5.5852,-5.5839,-5.5914,-5.5914,-5.5969,-5.597,-5.597]},{"header":{"parameterUnit":"m.s-1","parameterCategory":1,"la1":30.2991,"la2":30.254,"lo1":-89.0895,"lo2":-89.0444,"dy":0.0017,"dx":0.0017,"nx":28,"ny":28,"refTime":"2025-03-27T21:00:00:Z","depth":0,"parameterNumber":3,"parameterNumberName":"V-component_of_WINDS"},"data":[0,0,0,0,0,0,0,0,0,0,0,0,0,0,0,0,0,0,0,0,0,0,0,0,0,0,0,0,0,0,0,0,0,0,0,0,0,0,0,0,0,0,0,0,0,0,0,0,0,0,0,0,0,0,0,0,0,0,3.1567,3.1568,0,3.1671,3.1672,3.1673,3.1781,3.1783,3.1784,3.1786,3.1887,3.1888,3.1889,0,0,0,0,0,0,0,0,0,0,0,0,0,3.1458,3.146,3.1566,3.1568,3.1569,3.1671,3.1672,3.1674,3.1781,3.1783,3.1785,3.1786,3.1886,3.1888,3.1889,0,0,0,0,0,0,0,0,0,0,0,0,0,3.1528,3.146,3.1566,3.1635,3.1642,3.1671,3.1672,3.1674,3.1781,3.1783,3.1785,3.1787,3.1886,3.1888,3.189,3.1856,0,0,3.1895,3.1896,0,0,0,0,0,0,0,0,3.1524,3.1532,3.1624,3.163,3.1639,3.1716,3.1671,3.1735,3.178,3.1728,3.1786,3.1788,3.1828,3.1834,3.1849,3.1861,3.1865,3.1896,3.1897,3.1898,3.1898,0,0,0,0,0,0,0,3.1519,3.1528,3.1608,3.1625,3.1634,3.166,3.1673,3.1684,3.1764,3.1733,3.1741,3.1752,3.1832,3.1847,3.1852,3.1867,3.1896,3.1897,3.1899,3.1899,3.1862,3.186,0,0,0,0,0,0,3.1504,3.1523,3.1604,3.1611,3.1586,3.166,3.1674,3.1688,3.1764,3.1778,3.175,3.1757,3.1842,3.185,3.1856,3.1825,3.1898,3.1899,3.1901,3.1864,3.1861,3.1859,0,0,0,0,0,0,3.1501,3.151,3.16,3.1569,3.1583,3.166,3.1675,3.1689,3.1704,3.1777,3.1791,3.175,3.1844,3.1853,3.1857,3.183,3.19,3.1902,3.1866,3.1863,3.186,3.176,0,0,0,0,0,0,3.1498,3.1509,3.1497,3.1568,3.1584,3.16,3.1673,3.169,3.1708,3.1718,3.1781,3.1794,3.1847,3.1854,3.1859,3.1834,3.1904,3.1869,3.1865,3.1861,3.1766,3.1754,3.1744,0,0,0,0,0,3.1494,3.1462,3.1496,3.1505,3.1571,3.1598,3.1607,3.167,3.1705,3.1694,3.1742,3.1792,3.1832,3.1853,3.186,3.1835,3.1871,3.1866,3.1861,3.1772,3.1757,3.1744,0,0,0,0,0,0,3.1382,3.1473,3.1511,3.1502,3.1542,3.1616,3.1604,3.1651,3.168,3.1688,3.1763,3.1777,3.1772,3.1804,3.1826,3.1809,3.1859,3.1855,3.1788,3.1775,3.1763,3.1756,3.1905,0,0,0,0,0,3.1358,3.1373,3.145,3.1435,3.1454,3.1525,3.1539,3.1585,3.1628,3.1645,3.1692,3.1731,3.1754,3.1766,3.179,3.1772,3.1789,3.1759,3.1747,3.1738,3.1733,3.173,3.1718,3.1843,3.1843,3.1843,0,0,3.1305,3.1356,3.1361,3.1415,3.1451,3.1465,3.1538,3.1549,3.156,3.1646,3.1654,3.169,3.1739,3.1732,3.1732,3.1759,3.1703,3.1732,3.1723,3.1724,3.1724,3.1712,3.1701,3.184,3.184,3.1841,0,0,3.1217,3.1256,3.125,3.1286,3.1342,3.139,3.1389,3.1457,3.1486,3.1495,3.1561,3.1575,3.161,3.1644,3.1665,3.1595,3.1643,3.16,3.154,3.1536,3.1526,3.1518,3.1495,3.1485,3.1596,3.1596,3.1595,0,3.1144,3.1169,3.124,3.1249,3.1271,3.1353,3.1348,3.1379,3.1438,3.1451,3.1481,3.1531,3.1569,3.1573,3.1557,3.1571,3.1572,3.1593,3.1522,3.1514,3.1508,3.1487,3.1477,3.159,3.1591,3.1591,3.1592,0,3.1078,3.1094,3.1082,3.1142,3.1163,3.1163,3.1235,3.1248,3.1293,3.1339,3.1349,3.1399,3.1436,3.144,3.1482,3.1452,3.1467,3.1508,3.156,3.1489,3.1471,3.1463,3.1582,3.1584,3.1586,3.1587,0,0,3.0919,3.1022,3.1016,3.1046,3.1115,3.1129,3.1135,3.1174,3.1185,3.1223,3.1231,3.1261,3.1302,3.1326,3.1373,3.1369,3.1314,3.1412,3.1414,3.1393,3.1286,3.1255,3.1244,3.1347,3.1345,3.1344,3.1282,0,3.0844,3.0861,3.0928,3.0925,3.0943,3.1023,3.1029,3.1072,3.1115,3.1136,3.1184,3.1205,3.1255,3.1271,3.1271,3.132,3.1293,3.1326,3.1354,3.1354,3.134,3.1234,3.1201,3.1139,3.1275,3.1274,3.1273,0,3.0757,3.0795,3.0795,3.0868,3.0878,3.0882,3.0926,3.0944,3.0995,3.1028,3.1057,3.1112,3.1123,3.1172,3.1189,3.121,3.1226,3.1252,3.1252,3.1257,3.1309,3.1237,3.1121,3.1112,3.1262,3.1263,3.1264,0,3.0644,3.0695,3.0703,3.0725,3.081,3.0811,3.0846,3.09,3.0921,3.0959,3.0973,3.101,3.1031,3.1058,3.1122,3.1151,3.1133,3.1186,3.116,3.1158,3.1152,3.1151,3.1037,3.1161,3.1161,3.1161,3.1161,0,3.0554,3.055,3.0654,3.0658,3.0658,3.0735,3.0733,3.0775,3.0824,3.0838,3.0909,3.092,3.1004,3.1025,3.1074,3.1083,3.1091,3.1117,3.1131,3.1111,3.1108,3.1123,3.1129,3.1159,3.1159,3.1159,3.116,0,3.0426,3.0495,3.0509,3.059,3.0611,3.0607,3.0676,3.0684,3.0734,3.0751,3.076,3.0837,3.0866,3.0933,3.0979,3.1013,3.1009,3.1032,3.0992,3.1,3.0971,3.0974,3.0863,3.0853,3.0981,3.098,3.0979,0,3.0364,3.0365,3.0447,3.0464,3.0497,3.0521,3.0544,3.0621,3.0642,3.0703,3.0704,3.0739,3.0772,3.0815,3.0875,3.0911,3.0937,3.0896,3.0942,3.0924,3.0938,3.0938,3.0939,3.0885,3.0883,3.0882,3.0881,0,3.0247,3.0282,3.0314,3.0358,3.0384,3.0422,3.0464,3.0472,3.0559,3.0579,3.0612,3.0638,3.0688,3.0723,3.0769,3.0805,3.0857,3.0866,3.0862,3.0842,3.082,3.0834,3.0965,3.0868,3.0869,3.087,3.0871,3.0871,3.0151,3.0157,3.0218,3.0251,3.0292,3.033,3.0343,3.0396,3.0425,3.0474,3.0517,3.0546,3.0601,3.0669,3.0702,3.0726,3.0752,3.0746,3.0744,3.0742,3.0734,3.0816,3.0734,3.0735,3.0735,3.0736,3.0736,0,3.004,3.0084,3.0114,3.0172,3.0199,3.025,3.03,3.0318,3.0344,3.0392,3.0424,3.0463,3.0499,3.0563,3.0604,3.0611,3.0636,3.0619,3.0619,3.0627,3.0708,3.0708,3.0598,3.0598,3.0598,3.0598,3.0598,3.0598,2.9984,2.9998,3.0041,3.0076,3.012,3.0151,3.0176,3.0212,3.0251,3.0293,3.0324,3.0366,3.0421,3.0468,3.0503,3.0521,3.0533,3.0508,3.0534,3.0608,3.0621,3.0633,3.0634,3.051,3.051,3.0452,3.0451,3.0451]}]]